Location: Fort Wayne
(41.1310°N, 85.1290°W)
Time: 07:04:27
(UTC-05:00)

Cosmos 2056 Rocket - Visible Passes

Search period start: 21 December 2014 00:00
Search period end: 31 December 2014 00:00
Orbit: 743 x 802 km, 74.0° (Epoch: 20 December)

Date Brightness Start Highest point End Pass type
(mag) Time Alt. Az. Time Alt. Az. Time Alt. Az.
22 Dec 5.6 19:33:01 10° N 19:33:46 14° N 19:33:46 14° N visible
23 Dec 5.2 18:57:46 10° N 18:59:28 17° NNE 18:59:28 17° NNE visible
23 Dec 6.1 20:39:22 10° NNW 20:39:53 13° NW 20:39:53 13° NW visible
24 Dec 5.1 18:22:54 10° NNE 18:25:26 15° NE 18:25:26 15° NE visible
24 Dec 5.0 20:03:28 10° NNW 20:05:53 28° NNW 20:05:53 28° NNW visible
25 Dec 3.5 19:27:46 10° NNW 19:32:22 60° NNE 19:32:22 60° NNE visible
25 Dec 6.3 21:11:50 10° WNW 21:12:52 12° WNW 21:12:52 12° WNW visible
26 Dec 3.8 18:52:15 10° N 18:57:12 40° ENE 19:00:05 22° ESE visible
26 Dec 5.5 20:34:57 10° NW 20:39:04 24° W 20:40:46 20° SW visible
27 Dec 4.4 18:16:57 10° N 18:21:17 25° ENE 18:25:31 10° ESE visible
27 Dec 4.7 19:58:42 10° NW 20:03:34 40° WSW 20:08:20 10° S visible
28 Dec 3.7 19:22:45 10° NNW 19:27:58 69° WSW 19:33:03 10° S visible
29 Dec 3.4 18:47:02 10° NNW 18:52:16 72° ENE 18:57:23 10° SSE visible
29 Dec 6.5 20:31:28 10° WNW 20:33:41 13° W 20:35:53 10° WSW visible
30 Dec 3.8 18:11:29 10° N 18:16:28 43° ENE 18:21:21 10° SE visible
30 Dec 5.9 19:54:21 10° NW 19:58:16 22° W 20:02:09 10° SSW visible
